DELTA 1 DEB

Satellite information

Favourite Embed

Satellite Type and Status

DEBRISIN ORBIT

Key statistics

Satellite DELTA 1 DEB at a glance.

Uptime

19403

Days in orbit

Revolutions

≈ 14.6

Per day

Orbit

SSO

Sun Synchronous Orbit

Inclination

97.8

Latest

Satellite identification and parameters

Extended collection of information and parameters for DELTA 1 DEB.

Object identification

Identified? True

Debris? True

Object name: DELTA 1 DEB

International designator: 1972-058JY

Object number (NORAD): 42565

Object ID (CCSDS): 42565

Country: UNITED STATES OF AMERICA (US)

Current information (Y/N): Y

RCS size: SMALL

Orbital parameters

Period: 98.946 minutes

Inclination: 97.8431 deg

SMA: 7086.407 km

Apoapsis: 734.029 km

Periapsis: 682.516 km

RAAN: 55.9783 deg

Eccentricy: 0.00363465

Argument of periapsis: 353.032 deg

Mean anomaly: 7.0369 deg

Mean motion: 14.55337098 rev/day

Mean motion (dot): 0.00001036 rev/day2

B* drag term: 0.00024655861 1/REarth

Two-line elements (TLE)

Creation date: Sept. 6, 2025, 2:09 a.m.

Reference frame: TEME

Reference center: EARTH

Epoch: Sept. 5, 2025, 5:26 p.m. UTC

TLE line 0: 0 DELTA 1 DEB

TLE line 1: 1 42565U 72058JY 25248.72652508 .00001036 00000-0 24656-3 0 9996

TLE line 2: 2 42565 97.8431 55.9783 0036346 353.0320 7.0369 14.55337098625082

Live tracking on map

Real-time ground track for satellite DELTA 1 DEB.

In-orbit conjunctions

A list of the most updated potential collisions computed for object DELTA 1 DEB.

Target Orbit TCA Probability of collision Miss distance Type
CZ-6A DEB LEO 2025-08-31 17:23:39 0.000114526 324.0 (m) DEBRIS
SL-8 DEB LEO 2024-12-05 04:47:59 0.0001375669 232.0 (m) DEBRIS

Associated space launch

Earth observation satellite

DELTA 1 DEB was lifted into orbit during the mission ‘Delta 0900 | Landsat 1’, on board a Delta 0900 space rocket.

The launch took place on July 23, 1972, 6:06 p.m. from Space Launch Complex 2W.

For more information about the launch, click the button.

Launch to space Delta 0900 | Landsat 1
Delta 0900 | Landsat 1

Agency: N/A

Status: Launch Successful

Launch date: July 23, 1972, 6:06 p.m. UTC

Rocket: Delta 0900

Launch pad: Space Launch Complex 2W

Location: Vandenberg SFB, CA, USA

...

Latest news about this satellite

There are no fresh news available about this satellite. Check back as we update our databases every day.


Newsletter sign-up

Weekly statistics, charts and insights to help you stay on top of the space industry.